CW1852 Weather Reports


Display with metric or nautical units.
time (UTC)temp
F
wind
direction
speed
MPH
gust
MPH
rain 1hr
in
rain 24hr
in
rain mn
in
humidity
%
barometer
mb
20260904183202 76 243 3.0 7.0 0.00 0.00 0.00 74 1006.1
20260904182224 74 180 2.0 7.0 0.00 0.00 0.00 79 1006.1
20260904181203 73 263 5.0 7.0 0.00 0.00 0.00 78 1006.0
20260904180203 73 274 1.0 7.0 0.00 0.00 0.00 80 1006.0
20260904175203 73 252 3.0 8.0 0.00 0.00 0.00 78 1006.3
20260904174203 76 238 2.0 9.0 0.00 0.00 0.00 73 1006.4
20260904173202 78 197 2.0 8.0 0.00 0.00 0.00 73 1006.4
20260904172203 79 257 3.0 8.0 0.00 0.00 0.00 72 1006.5
20260904171224 78 182 3.0 6.0 0.00 0.00 0.00 72 1006.5
20260904170223 76 181 1.0 3.0 0.00 0.00 0.00 76 1006.7
20260904165203 75 182 1.0 6.0 0.00 0.00 0.00 77 1006.7
20260904164224 74 178 3.0 7.0 0.00 0.00 0.00 79 1006.9
20260904163203 75 182 1.0 3.0 0.00 0.00 0.00 79 1007.0
20260904162202 73 182 1.0 4.0 0.00 0.00 0.00 81 1007.0
20260904161203 73 182 1.0 2.0 0.00 0.00 0.00 83 1007.2
20260904160202 72 181 1.0 6.0 0.00 0.00 0.00 82 1007.3
20260904155224 72 334 1.0 3.0 0.00 0.01 0.00 84 1007.3
20260904154202 72 339 0.0 3.0 0.00 0.01 0.00 85 1007.4
20260904153203 71 335 0.0 2.0 0.00 0.01 0.00 87 1007.7
20260904152203 70 335 0.0 2.0 0.00 0.01 0.00 87 1007.7
20260904150203 69 344 0.0 2.0 0.00 0.01 0.00 92 1007.9
20260904145202 68 344 1.0 4.0 0.00 0.01 0.00 92 1007.9
20260904144203 67 334 1.0 5.0 0.00 0.01 0.00 93 1008.0
20260904143202 67 339 3.0 5.0 0.00 0.01 0.00 95 1008.0
20260904142203 66 56 2.0 4.0 0.00 0.01 0.00 96 1008.0
20260904141202 65 19 2.0 5.0 0.00 0.01 0.00 97 1008.0
20260904140224 65 324 1.0 2.0 0.00 0.01 0.00 97 1008.1
20260904135203 65 322 2.0 5.0 0.00 0.02 0.00 97 1008.1
20260904134203 65 322 0.0 3.0 0.00 0.02 0.00 97 1008.1
20260904133203 64 320 0.0 5.0 0.00 0.02 0.00 97 1008.2
20260904131204 64 320 1.0 3.0 0.00 0.04 0.00 97 1008.1
20260904130202 64 317 1.0 5.0 0.00 0.04 0.00 98 1008.1
20260904125203 63 308 1.0 8.0 0.00 0.04 0.00 97 1008.1
20260904124224 63 56 0.0 4.0 0.00 0.04 0.00 97 1008.1
20260904123223 63 57 1.0 4.0 0.00 0.04 0.00 97 1008.2
20260904122224 63 57 1.0 4.0 0.00 0.04 0.00 98 1008.2
20260904121203 63 57 1.0 4.0 0.00 0.04 0.00 98 1008.2
20260904115202 63 63 1.0 4.0 0.00 0.05 0.00 98 1008.2
20260904114224 63 63 2.0 5.0 0.00 0.05 0.00 98 1008.2
20260904113202 63 71 2.0 3.0 0.00 0.05 0.00 98 1008.2
20260904112203 63 72 1.0 3.0 0.00 0.06 0.00 97 1008.1
20260904111203 62 72 0.0 2.0 0.00 0.07 0.00 98 1008.1
20260904110202 62 72 0.0 2.0 0.00 0.09 0.00 97 1008.0
20260904105203 62 72 1.0 3.0 0.00 0.09 0.00 97 1007.9
20260904104202 62 72 1.0 4.0 0.00 0.09 0.00 97 1007.8
20260904103203 62 72 1.0 3.0 0.00 0.09 0.00 98 1007.8
20260904102203 61 72 1.0 3.0 0.00 0.09 0.00 97 1007.8
20260904101203 61 72 0.0 1.0 0.00 0.09 0.00 97 1007.8
20260904100203 61 72 0.0 2.0 0.00 0.09 0.00 97 1007.8
20260904095224 61 72 0.0 1.0 0.00 0.09 0.00 97 1007.8
20260904094202 61 72 0.0 0.0 0.00 0.09 0.00 98 1007.9
20260904093203 61 72 0.0 1.0 0.00 0.09 0.00 97 1007.7
20260904092202 60 72 0.0 1.0 0.00 0.09 0.00 97 1007.6
20260904091203 60 72 0.0 2.0 0.00 0.09 0.00 97 1007.7
20260904090202 60 71 1.0 2.0 0.00 0.09 0.00 97 1007.7
20260904085203 60 71 0.0 2.0 0.00 0.09 0.00 97 1007.6
20260904084203 60 71 1.0 2.0 0.00 0.09 0.00 97 1007.7
20260904083202 60 71 0.0 1.0 0.00 0.09 0.00 97 1007.8
20260904082224 60 72 0.0 1.0 0.00 0.09 0.00 97 1007.8
20260904081203 60 71 0.0 1.0 0.00 0.09 0.00 97 1007.6
20260904080203 60 71 0.0 0.0 0.00 0.09 0.00 97 1007.7
20260904075203 60 71 0.0 0.0 0.00 0.09 0.00 97 1007.7
20260904074245 60 71 0.0 0.0 0.00 0.09 0.00 97 1007.8
20260904073203 60 71 0.0 0.0 0.00 0.09 0.00 97 1007.9
20260904072203 60 71 0.0 0.0 0.00 0.09 0.00 97 1008.0
20260904071203 60 72 0.0 0.0 0.00 0.09 0.00 97 1008.2
20260904070202 60 71 0.0 0.0 0.00 0.09 0.00 97 1008.3
20260904065203 60 71 0.0 0.0 0.00 0.09 0.00 97 1008.4
20260904064202 60 72 0.0 0.0 0.00 0.09 0.00 97 1008.4
20260904063204 60 72 0.0 0.0 0.00 0.09 0.00 97 1008.4
20260904062202 60 72 0.0 0.0 0.00 0.09 0.00 97 1008.4
20260904061203 61 72 0.0 0.0 0.00 0.09 0.00 97 1008.7
20260904060203 61 72 0.0 1.0 0.00 0.09 0.00 97 1008.8
20260904055203 61 72 0.0 0.0 0.00 0.09 0.00 97 1009.0
20260904054203 61 72 0.0 0.0 0.00 0.09 0.00 97 1009.2
20260904053224 61 72 0.0 0.0 0.00 0.09 0.00 97 1009.1
20260904052203 62 71 0.0 0.0 0.00 0.09 0.00 97 1009.0
20260904051203 62 71 0.0 0.0 0.00 0.09 0.00 97 1009.3
20260904050202 62 72 0.0 2.0 0.00 0.09 0.00 97 1009.3
20260904045203 62 71 0.0 2.0 0.00 0.09 0.00 97 1009.5
20260904044202 62 71 0.0 1.0 0.00 0.09 0.00 97 1009.4
20260904043203 62 72 0.0 0.0 0.00 0.09 0.00 97 1009.2
20260904042202 62 72 0.0 0.0 0.00 0.09 0.00 97 1009.4
20260904041203 62 71 0.0 0.0 0.00 0.09 0.00 97 1009.7
20260904040203 62 72 0.0 0.0 0.00 0.09 0.00 97 1009.8
20260904035202 62 71 0.0 1.0 0.00 0.09 0.09 97 1010.0
20260904034203 62 71 0.0 0.0 0.00 0.09 0.09 97 1010.0
20260904033202 62 71 0.0 0.0 0.00 0.09 0.09 97 1010.0
20260904032203 62 71 0.0 2.0 0.00 0.09 0.09 97 1010.0
20260904031203 62 71 0.0 2.0 0.00 0.09 0.09 97 1010.0
20260904030203 62 71 0.0 2.0 0.00 0.09 0.09 97 1010.0
20260904025203 62 71 0.0 1.0 0.00 0.09 0.09 97 1010.1
20260904024203 61 71 1.0 2.0 0.00 0.09 0.09 97 1010.4
20260904023203 61 71 0.0 1.0 0.00 0.09 0.09 97 1010.1
20260904022203 61 71 0.0 1.0 0.00 0.09 0.09 97 1010.0
20260904021203 61 71 0.0 1.0 0.00 0.09 0.09 97 1010.2
20260904020203 61 71 0.0 1.0 0.00 0.09 0.09 97 1010.2
20260904015202 61 71 0.0 1.0 0.00 0.09 0.09 97 1010.1
20260904014203 62 71 0.0 2.0 0.00 0.09 0.09 97 1010.4
20260904013202 62 71 0.0 1.0 0.00 0.09 0.09 97 1010.5
20260904012203 63 71 0.0 2.0 0.00 0.09 0.09 97 1010.4
20260904011224 63 71 1.0 2.0 0.00 0.09 0.09 97 1010.4
20260904010203 63 71 1.0 3.0 0.00 0.09 0.09 97 1010.5
20260904005203 63 71 1.0 3.0 0.00 0.09 0.09 97 1010.5
20260904004223 63 72 0.0 1.0 0.00 0.09 0.09 97 1010.4
20260904003203 63 72 0.0 1.0 0.00 0.09 0.09 97 1010.3
20260904002204 63 72 0.0 1.0 0.00 0.09 0.09 97 1010.4
20260904001223 63 72 0.0 4.0 0.00 0.09 0.09 97 1010.3
20260904000204 63 73 0.0 2.0 0.00 0.09 0.09 97 1010.5
20260903235203 63 73 0.0 2.0 0.00 0.09 0.09 97 1010.5
20260903234224 63 73 0.0 2.0 0.00 0.09 0.09 97 1010.6
20260903233202 63 73 0.0 2.0 0.00 0.09 0.09 97 1010.6
20260903232203 63 73 0.0 2.0 0.00 0.09 0.09 97 1010.6
20260903231202 63 73 0.0 1.0 0.00 0.09 0.09 97 1010.6
20260903230224 63 73 0.0 0.0 0.00 0.09 0.09 97 1010.4
20260903225203 63 73 0.0 1.0 0.00 0.09 0.09 97 1010.5
20260903224202 63 73 0.0 2.0 0.00 0.09 0.09 97 1010.5
20260903223203 63 73 0.0 1.0 0.00 0.09 0.09 97 1010.6
20260903222203 63 73 0.0 2.0 0.00 0.09 0.09 97 1010.6
20260903221202 63 73 0.0 2.0 0.00 0.09 0.09 97 1010.8
20260903220203 63 73 0.0 3.0 0.00 0.09 0.09 97 1010.7
20260903215202 63 73 1.0 3.0 0.00 0.09 0.09 97 1010.7
20260903214203 62 73 2.0 7.0 0.00 0.09 0.09 96 1010.5
20260903213202 62 74 3.0 7.0 0.00 0.09 0.09 96 1010.6
20260903212224 62 77 1.0 6.0 0.00 0.09 0.09 96 1010.6
20260903211203 62 76 2.0 8.0 0.00 0.09 0.09 96 1010.7
20260903210202 62 74 2.0 6.0 0.00 0.09 0.09 96 1010.7
20260903205203 62 76 2.0 6.0 0.00 0.09 0.09 97 1010.8
20260903204202 62 75 3.0 7.0 0.00 0.09 0.09 96 1010.9
20260903203203 62 77 1.0 7.0 0.00 0.09 0.09 97 1010.9
20260903202203 62 78 2.0 6.0 0.00 0.09 0.09 97 1011.0
20260903200224 62 86 2.0 4.0 0.00 0.09 0.09 96 1011.2
20260903195202 62 88 2.0 6.0 0.00 0.09 0.09 96 1011.4
20260903194224 62 90 2.0 4.0 0.00 0.09 0.09 97 1011.6
20260903193203 62 91 1.0 3.0 0.00 0.09 0.09 96 1011.9
20260903192202 62 91 1.0 4.0 0.00 0.09 0.09 97 1012.0
20260903191203 62 91 2.0 4.0 0.00 0.09 0.09 96 1012.1
20260903190203 62 92 1.0 4.0 0.00 0.09 0.09 97 1012.2
20260903185224 62 92 0.0 7.0 0.00 0.09 0.09 96 1012.4